Flag for Iran Weather past 2 weeks in Bandar-Abbas, Iran

Now
88 °F

Scattered clouds.


Feels Like: 105 °F
Forecast: 83 / 93 °F
Wind: 5 mph from Southeast

Location: Bandarabbass

Current Time: Sep 22, 2014 at 8:34:13 AM

Latest Report: Sep 22, 2014 at 8:00 AM


Visibility: 2 mi

Pressure: 29.74 "Hg

Humidity: 79%

Dew point: 81 °F

Location of Bandar-AbbasLocation

Historic Weather in Bandar-Abbas — Graph

°F

Bandar-Abbas temperature yesterday

Maximum temperature yesterday: 95 °F (at 12:30 PM)
Minimum temperature yesterday: 84 °F (at 6:30 AM)
Average temperature yesterday: 91 °F

Past Weeks' High & Low Weather Summary

 TemperatureHumidityPressure
High102 °F (Sep 7, 10:20 AM)94% (Sep 15, 7:30 AM)29.80 "Hg (Sep 15, 7:30 AM)
Low82 °F (Sep 18, 4:30 AM)35% (Sep 7, 10:20 AM)29.50 "Hg (Sep 7, 5:00 PM)
Average91 °F75%29.62 "Hg
* Reported Sep 7 9:00 AM — Sep 22 7:30 AM, Bandar-Abbas, Weather by CustomWeather, © 2014

Note: Actual official high and low records may vary slightly from our data, if they occured in-between our weather recording intervals... More about our weather records

Advertising

Bandar-Abbas weather history for previous 24 hours

 ConditionsComfort  
Time TempWeatherWind HumidityBarometerVisibility
7:30 AM
Sep 22
86 °FFog.9 mph84%29.71 "Hg2 mi
7:00 AM84 °FFog.7 mph84%29.71 "Hg2 mi
6:30 AM84 °FFog.7 mph84%29.71 "Hg2 mi
6:00 AM84 °FFog.7 mph84%29.68 "Hg2 mi
5:30 AM84 °FFog.7 mph84%29.68 "Hg2 mi
4:30 AM84 °FFog.5 mph84%29.65 "Hg2 mi
3:30 AM84 °FFog.5 mph84%29.65 "Hg2 mi
2:30 AM84 °FFog.9 mph84%29.65 "Hg2 mi
1:30 AM86 °FFog.9 mph84%29.65 "Hg2 mi
1:00 AM86 °FFog.7 mph79%29.65 "Hg2 mi
12:30 AM86 °FFog.9 mph79%29.65 "Hg2 mi
12:00 AM86 °FFog.9 mph79%29.65 "Hg2 mi
11:30 PM
Sep 21
86 °FFog.7 mph84%29.65 "Hg2 mi
11:00 PM88 °FHaze.7 mph79%29.65 "Hg2 mi
11:30 PM88 °FFog.7 mph79%29.65 "Hg2 mi
11:00 PM88 °FFog.7 mph79%29.65 "Hg2 mi
10:30 PM88 °FFog.7 mph84%29.65 "Hg2 mi
10:00 PM90 °FFog.7 mph79%29.65 "Hg2 mi
9:30 PM90 °FClear.7 mph79%29.65 "Hg2 mi
9:00 PM90 °FClear.9 mph75%29.62 "Hg2 mi
8:30 PM90 °FClear.9 mph75%29.62 "Hg2 mi
8:00 PM90 °FSunny.7 mph75%29.62 "Hg2 mi
7:30 PM90 °FSunny.5 mph75%29.59 "Hg2 mi
7:00 PM91 °FSunny.7 mph71%29.59 "Hg2 mi
6:30 PM91 °FSunny.7 mph71%29.59 "Hg2 mi
6:00 PM91 °FSunny.9 mph71%29.59 "Hg2 mi
5:30 PM93 °FSunny.9 mph67%29.59 "Hg2 mi
5:00 PM93 °FSunny.12 mph67%29.59 "Hg2 mi
4:30 PM93 °FSunny.12 mph67%29.59 "Hg2 mi
4:00 PM95 °FHaze.9 mph63%29.59 "Hg2 mi
3:30 PM95 °FHaze.12 mph63%29.62 "Hg2 mi
3:00 PM95 °FHaze.12 mph63%29.62 "Hg2 mi
2:30 PM95 °FHaze.12 mph63%29.62 "Hg2 mi
2:00 PM95 °FScattered clouds.14 mph63%29.65 "Hg2 mi
1:30 PM95 °FScattered clouds.12 mph63%29.65 "Hg2 mi
1:00 PM95 °FScattered clouds.9 mph63%29.68 "Hg2 mi
12:30 PM95 °FPartly sunny.14 mph63%29.68 "Hg2 mi
12:00 PM93 °FPartly sunny.9 mph67%29.68 "Hg2 mi
11:30 AM93 °FScattered clouds.7 mph67%29.71 "Hg2 mi
11:00 AM93 °FScattered clouds.9 mph67%29.71 "Hg2 mi
10:30 AM93 °FScattered clouds.9 mph67%29.71 "Hg2 mi
10:00 AM91 °FScattered clouds.7 mph75%29.71 "Hg2 mi
9:30 AM91 °FScattered clouds.9 mph71%29.71 "Hg2 mi
9:00 AM91 °FScattered clouds.7 mph75%29.71 "Hg2 mi
8:20 AM90 °FFog.5 mph79%29.68 "Hg2 mi
8:00 AM86 °FFog.5 mph84%29.65 "Hg1 mi
Weather by CustomWeather, © 2014

See weather overviewHow to use our weather pages